User: anonymous   Login
Location: Arborea
(39.7744°N, 8.5819°E)
Time: 21:44:43
(UTC+00:00)
Language:

Cosmos 332 Rocket - Orbit

View from above orbital plane
View from above orbital plane
View from above satellite
View from above satellite

Ground track
Ground track

The orbit data is extracted from the following two-line orbital elements,

1 04370U 70028B   22028.58283903  .00000116  00000-0  30410-4 0  9993
2 04370  74.0394 111.9758 0016531 317.4733  42.5151 14.60171109257618
Epoch (UTC): 28 January 2022 13:59:17
Eccentricity: 0.0016531
inclination: 74.0394°
perigee height: 681 km
apogee height: 704 km
right ascension of ascending node: 111.9758°
argument of perigee: 317.4733°
revolutions per day: 14.60171109
mean anomaly at epoch: 42.5151°
orbit number at epoch: 25761

The dashed part of the orbit path shows where the satellite is in the earth's shadow,  

DLR